APSTAR 6C (43450 NORAD) Tracking and Keplerian Element Data

This shows tracking and keplerian element data for the satellite.

Feedback or suggestion? Click here.




ElementValue
Catalog43450
NameAPSTAR 6C
Epoch Orbit364
Epoch Day112.48324396
Epoch Year2019
RAAN122.2172
Inclination0.0322
Eccentricity0.0003378
Argument of Perigee308.3349
Mean Anonmoly87.6692
Mean Motion1.0027137
Decay Rate-3.34E-06
L11 43450U 18041A 19112.48324396 -.00000334 00000-0 00000+0 0 9993
L22 43450 0.0322 122.2172 0003378 308.3349 87.6692 1.00271370 3645

Live tracking and technical data element details for APSTAR 6C (NORAD 43450). APSTAR 6C can be tracked NOW for your location showing map with azimuth and elevation plus other details from your city location.

Track the satellite on the map from your city or location and see movement details for azimuth, elevation, latitude, longitude, range, height, and movement on the map or in text.







IsCatalogInMostPopularTable: catalog: 43450, numindb: 149
Update: records affected: 1



GetName: 43450 APSTAR 6C

Hit Count: updated at: Tue, 23 Apr 2019 06:14:44 GMT